Starlink 2408

operational
NORAD ID: 47823 Int'l Des: 2021-018 Owner: SPXS Country: US Constellation: starlink
LEOCIRCULARSTARLINK_TYPE

About Starlink 2408

Description loading...

Live Position

Loading 3D Globe...

Upcoming Passes

Altitude History

Altitude vs Time

uPlot chart will show altitude changes over time

Two-Line Element Set

1 47823U 21018AN 25352.12633026 .00009315 00000-0 64285-3 0 9992
2 47823 53.0546 257.7633 0001376 90.7099 269.4047 15.06433222264308
Epoch: Dec 18, 2025 • Age: 13 hours

Current Status

Altitude 552.3 km
Velocity 7.59 km/s
Sub-Earth Point 51.56°N, 3.48°W
Launch Date Mar 11, 2021
Age 4.7 years
Type internet

Technical Details

Classification Payload
Mass 260.00 kg
Dry Mass 248.00 kg
Total Mass 260.00 kg
Length 0.20 m
Diameter 2.80 m
Span 9.00 m
Shape Box + pan
Manufacturer SPXS
Bus Type Starlink
Phase Status In Orbit
Owner/State SPXS/US

Large Constellations

Loading constellations...